Showing default

QIANFAN-59, 62789

Orbit data source: Space-Track

QIANFAN-59, 62789 is a Chinese payload satellite in LEO that was launched on Thu, 23 Jan 2025 UTC via a CHANG ZHENG 6A launch vehicle from the Taiyaun Space Center, China (TSC). Payload-class satellites include a variety of spacecraft equipped with specific instruments for various scientific and technological missions. These include communications satellites like Starlink; space stations such as the ISS; scientific satellites like the Hubble; Earth observation satellites from companies like Planet Labs, Umbra, and HawkEye 360; GPS; miniature CubeSats for education and research; and military/defense satellites.

Loading next visibility...
Identifier
62789, 2025-016E
Orbit
LEO
Country
Flag of CNCN / PRC
Related business
Manufacturer
SECM
Mission
Operational Commercial Communications
Bus & Motor
QIANFAN, Unknown motor
Mass
267 kg wet, ~267 kg dry
Launch date (UTC)
2025-01-23 (2 years ago)
Launch vehicle
CHANG ZHENG 6A
Launch site
Taiyaun Space Center, China (TSC)
Object type
Payload
Rocket body
Debris
Shape & HBR
Box + 1 Pan, 5.0 m
Radar Cross Section
13.200 m², Large (>1 m²)

Expand to show TLE details & history
Last TLE update: 9 hours ago

TLE from 9 hours ago
0 QIANFAN-59
1 62789U 25016E   26257.55734752  .00000041  00000-0  44464-4 0  9997
2 62789  88.9667  74.4657 0012368 270.4304  89.5430 13.51024265 84483
Epoch: 2026-09-14T13:22Z
TLE epoch observation values (Epoch: 2026-09-14T13:22:34.825Z)
Latitude
-0.00003°
Longitude
-119.71534°
Altitude
1,071.383 km
Speed
7.316 km/s
True Right ascension
04h 57m 51s
True Declination
0° 00' 00"
Sunlit
Object was in daylight at epoch
Visualization orbit readout
Latitude
Unknown
Longitude
Unknown
Altitude
Unknown
Speed
Unknown
Apparent Right ascension
Unknown
Apparent Declination
Unknown
Sunlit
N/A
Visualization observer readout
Local Sidereal Time
14:58:44
Azimuth
Unknown
Elevation
Unknown
Doppler factor
Unknown
Orbital elements
Apogee altitude
1,074.75 km
Perigee altitude
1,056.337 km
Semi-major axis
7,443.681 km
Eccentricity
0.00124
Inclination
88.9667°
RAAN
74.4657°
Arg. of periapsis
270.4304°
True anomaly
89.68472°
Mean anomaly
89.543°
Eccentric anomaly
89.61386°
Mean motion
3.37957 °/min
Orbital period
106.52 mins
BSTAR
0.000044464
Loading maneuver chart data...
Computing Atmospheric mass density...
Loading historical data...
Loading historical data...
Loading historical data...
Loading historical data...
Loading historical data...
Loading historical data...
Loading historical data...

Documentation

Showing up to 5 results
|